Weather History for Resia Pass, Italy

Change the Weather History Date:

Tuesday, October 9, 2012

  Actual Average Record
Temperature  
Mean Temperature 50 °F -  
Max Temperature 59 °F 54 °F 68 °F (2005)
Min Temperature 41 °F 39 °F 30 °F (2000)
Degree Days  
Heating Degree Days 15    
Moisture  
Dew Point 42 °F    
Average Humidity 80    
Maximum Humidity 93    
Minimum Humidity 51    
Precipitation  
Precipitation 0.00 in - - ()
Sea Level Pressure  
Sea Level Pressure 29.94 in    
Wind  
Wind Speed 4 mph ()    
Max Wind Speed 9 mph    
Max Gust Speed -    
Visibility 6.0 miles    
Events Rain    
Averages and records for this station are not official NWS values.
T = Trace of Precipitation, MM = Missing Value Source: Averaged Metar Reports

Daily Weather History Graph

Daily Weather History Graph

Search for Another Location

Airport:

Trip Planner

Search our weather history database for the weather conditions in past years. The results will help you decide how hot, cold, wet, or windy it might be!

Date:

Astronomy

Oct. 09, 2012 Rise Set
Actual Time 7:27 AM CEST 6:41 PM CEST
Civil Twilight 6:57 AM CEST 7:12 PM CEST
Nautical Twilight 6:22 AM CEST 7:47 PM CEST
Astronomical Twilight 5:46 AM CEST 8:22 PM CEST
Moon 12:25 AM CEST (10/9) 3:19 PM CEST (10/9)
Length of Visible Light 12h 14m
Length of Day
11h 13m
Last Quarter, 39% of the Moon is Illuminated
Oct 9
Last Quarter
Oct 15
New
Oct 22
First Quarter
Oct 29
Full
Nov 7
Last Quarter

Hourly Weather History & Observations

Time (CEST) Temp. Windchill Dew Point Humidity Pressure Visibility Wind Dir Wind Speed Gust Speed Precip Events Conditions
12:55 AM 44.6 °F 43.1 °F 41.0 °F 87% 30.01 in 6.2 mi NNW 3.5 mph - N/A   Mostly Cloudy
1:55 AM 44.6 °F 43.1 °F 39.2 °F 81% 30.01 in 6.2 mi NNW 3.5 mph - N/A   Mostly Cloudy
2:55 AM 44.6 °F - 39.2 °F 81% 29.98 in 6.2 mi Calm Calm - N/A   Unknown
4:55 AM 44.6 °F - 39.2 °F 81% 29.95 in 6.2 mi Variable 2.3 mph - N/A   Mostly Cloudy
5:55 AM 42.8 °F 41.1 °F 37.4 °F 81% 29.92 in 6.2 mi SSE 3.5 mph - N/A   Mostly Cloudy
6:55 AM 42.8 °F 41.1 °F 37.4 °F 81% 29.92 in 5.0 mi SSE 3.5 mph - N/A Rain Light Rain
7:55 AM 41.0 °F 39.0 °F 39.2 °F 93% 29.92 in 5.0 mi North 3.5 mph - N/A Rain Light Rain
9:55 AM 42.8 °F 41.1 °F 41.0 °F 93% 29.92 in 5.0 mi North 3.5 mph - N/A   Scattered Clouds
10:55 AM 48.2 °F - 46.4 °F 93% 29.92 in 5.0 mi NNE 8.1 mph - N/A Rain Light Rain
11:55 AM 51.8 °F - 44.6 °F 76% 29.92 in 6.2 mi NNE 5.8 mph - N/A   Mostly Cloudy
12:55 PM 55.4 °F - 42.8 °F 63% 29.95 in 6.2 mi North 6.9 mph - N/A   Mostly Cloudy
1:55 PM 57.2 °F - 42.8 °F 59% 29.92 in 6.2 mi North 6.9 mph - N/A   Scattered Clouds
2:55 PM 59.0 °F - 41.0 °F 51% 29.92 in 6.2 mi NNE 9.2 mph - N/A   Scattered Clouds
3:55 PM 57.2 °F - 42.8 °F 59% 29.92 in 6.2 mi NNE 9.2 mph - N/A   Scattered Clouds
4:55 PM 53.6 °F - 42.8 °F 67% 29.92 in 6.2 mi North 6.9 mph - N/A   Mostly Cloudy
6:55 PM 51.8 °F - 44.6 °F 76% 29.92 in 6.2 mi NNE 4.6 mph - N/A Rain Light Rain
7:55 PM 50.0 °F - 44.6 °F 82% 29.92 in 6.2 mi NNE 3.5 mph - N/A Rain Light Rain
8:55 PM 50.0 °F - 46.4 °F 87% 29.95 in 6.2 mi NNE 3.5 mph - N/A Rain Light Rain
9:55 PM 48.2 °F - 46.4 °F 93% 29.98 in 6.2 mi NNE 3.5 mph - N/A Rain Light Rain
10:55 PM 48.2 °F - 46.4 °F 93% 29.98 in 6.2 mi North 3.5 mph - N/A Rain Light Rain
11:55 PM 48.2 °F - 46.4 °F 93% 29.98 in 6.2 mi NNE 3.5 mph - N/A Rain Light Rain